Location: Finney State Fishing Lake and Wildlife Area
(38.1834°N, 100.3310°W)
Time: 09:48:14
(UTC+00:00)

Cosmos 1980 Rocket - Pass Details

Date: 17 October 2021
Orbit: 828 x 851 km, 71.0° (Epoch: 28 November)

Event Time Altitude Azimuth Distance (km) Brightness Sun altitude
Rises 12:23:10 0° 316° (NW) 3,422 4.9 -6.5°
Reaches altitude 10° 12:26:56 10° 291° (WNW) 2,479 4.0 -5.8°
Maximum altitude 12:29:35 14° 263° (W) 2,230 3.8 -5.2°
Drops below altitude 10° 12:32:13 10° 235° (SW) 2,468 4.2 -4.7°
Sets 12:35:59 0° 210° (SSW) 3,394 5.1 -4.0°
